AEHF 6 (USA 298)

导读

AEHF 6(USA 298)是美国先进极高频(AEHF)军事通信卫星星座的第六颗,也是最后一颗卫星,由洛克希德·马丁和诺斯罗普·格鲁门联合研制。它于2020年3月26日由宇宙神5火箭发射,是美国天军成立后首次发射的天军载荷。 该卫星为美国及盟友提供高安全性加密抗干扰通信,可在核战争环境下稳定运行,兼容并替代老旧的Milstar系统,具备多档通信速率,采用相控阵天线和复合推进技术,设计寿命14年,完成了AEHF全球军事通信星座的组网。

基本信息
目录编号:
45465
目录名称:
AEHF 6 (USA 298)
国际标识:
2020-022B
轨道中心:
EARTH
卫星名称:
AEHF 6 (USA 298)
卫星全名:
--
卫星状态:
在轨 (已飞行2278 天)
发射日期:
2020-03-26 UTC
国别 :
美国 (US)
星等 :
--
轨道信息
数据来源 国际轨道数据 AOE轨道数据
星历时间 2026-06-20T18:03:19+0800
17小时前
查看轨道信息
2026-06-21T01:00:00+0800
11小时前
查看轨道信息
半长轴 42165.121km 42165.121km
偏心率 0.0042999 0.0042903
轨道倾角 2.540° 2.540°
近地点辐角 17.140° 17.239°
升交点赤经 301.213° 301.226°
平近点角 238.875° 343.217°
近地点 35605.678km 35606.082km
远地点 35968.29km 35967.886km
周期 1436.117分钟 1436.117分钟
每日圈数 1.002704 1.002704
详细信息
使用方式:
暂无
2D轨道图
3D轨道图
轨道高度分析图
轨道倾角分析图
轨道综合分析图
查看轨道综合分析图